This is the latest recevied weather packets stored in our database for station/object WX1NWA. If no packets are shown the sender has not sent any weather packets the latest 10 day(s).
| Time | Temp. | Humidity | Pressure | Rain* | Wind** | Luminosity | Snow |
|---|---|---|---|---|---|---|---|
| 1777252515 | 18.89° C | 97% | 1011.9 hPa | 0 mm | - | 0 W/m² | - |
| 1777252211 | 18.89° C | 98% | 1011.7 hPa | 0 mm | - | 0 W/m² | - |
| 1777251909 | 18.89° C | 97% | 1011.9 hPa | 0 mm | - | 0 W/m² | - |
| 1777251606 | 18.89° C | 97% | 1011.8 hPa | 0 mm | - | 0 W/m² | - |
| 1777251303 | 18.89° C | 97% | 1012 hPa | 0 mm | - | 0 W/m² | - |
| 1777250998 | 18.89° C | 97% | 1012 hPa | 0 mm | - | 3 W/m² | - |
| 1777250695 | 18.89° C | 96% | 1011.8 hPa | 0 mm | - | 5 W/m² | - |
| 1777250392 | 18.89° C | 96% | 1012 hPa | 0 mm | - | 7 W/m² | - |
| 1777250091 | 19.44° C | 96% | 1011.8 hPa | 0 mm | - | 10 W/m² | - |
| 1777249789 | 19.44° C | 96% | 1011.8 hPa | 0 mm | - | 14 W/m² | - |
| 1777249484 | 19.44° C | 96% | 1011.7 hPa | 0 mm | - | 17 W/m² | - |
| 1777249181 | 19.44° C | 96% | 1011.6 hPa | 0 mm | - | 17 W/m² | - |
| 1777248878 | 19.44° C | 95% | 1011.9 hPa | 0 mm | - | 26 W/m² | - |
| 1777248575 | 19.44° C | 95% | 1012.2 hPa | 0 mm | - | 27 W/m² | - |
| 1777248271 | 20° C | 94% | 1011.6 hPa | 0 mm | - | 37 W/m² | - |
| 1777247966 | 20° C | 94% | 1012 hPa | 0 mm | - | 44 W/m² | - |
| 1777247661 | 20° C | 94% | 1012 hPa | 0 mm | - | 49 W/m² | - |
| 1777247359 | 20° C | 93% | 1011.7 hPa | 0 mm | - | 50 W/m² | - |
| 1777247057 | 20° C | 93% | 1012.1 hPa | 0 mm | - | 53 W/m² | - |
| 1777246753 | 20° C | 93% | 1012 hPa | 0 mm | - | 67 W/m² | - |
| 1777246449 | 20° C | 93% | 1012 hPa | 0 mm | - | 72 W/m² | - |
| 1777246146 | 20° C | 92% | 1012.1 hPa | 0 mm | - | 66 W/m² | - |
| 1777245844 | 20° C | 92% | 1012.3 hPa | 0 mm | - | 86 W/m² | - |
| 1777245541 | 20° C | 92% | 1012.3 hPa | 0 mm | - | 75 W/m² | - |
| 1777245237 | 20° C | 91% | 1012.5 hPa | 0 mm | - | 91 W/m² | - |
* Rain latest hour (hover to see other rain measurements)
** Current wind speed in m/s (hover to see current wind gust speed)